map of KIN home
Great Circle Mapper logo
KIN - Airport
Location
City:  Kingston, Jamaica
Name:Norman Manley International Airport
ICAO / IATA:MKJP / KIN

Details
Type:Airport (Aerodrome, Airfield)
Use:Public/Civil, International (customs port of entry)
Latitude:1756'08"N (17.935667)
Longitude:7647'15"W (-76.787499)
Datum:WGS 1984
Elevation:10 ft (3 m)
Variation:7.2W (WMM2010 magnetic declination)
Runways:1
Longest:8900 × 150 ft (2713 × 45.5 m), paved

Time
Time Zone:UTC-5
Local Time:

Weather
METAR:MKJP 280100Z 34004KT 9999 FEW020 27/24 Q1014
TAF:MKJP 270445Z 2706/2806 35005KT 9999 FEW022 FEW024CB SCT035 PROB40
TEMPO 2706/2710 8000 SHRA SCT020 FEW022CB
BECMG 2714/2716 13022KT
TEMPO 2718/2723 6000 SHRA BKN018 SCT020CB
BECMG 2801/2803 33005KT

Related Locations
Nearby:
Farthest:XCH: 11891 mi / 19136 km
Christmas Island, CX

Find:

   beyond  
but within

Other Information
Maps:
NOTAMs:
Links:
Sources:

  
flag of Jamaica   

Airport Diagram

Airport diagram for KIN

Airport diagram (OBSOLETE) from NGA

Sectional Chart

Flight Planning
at skyvector.com

Satellite Image

Google Maps Satellite View

 

Copyright © 2004-2014 Karl L. Swartz. All rights reserved.
The Great Circle Mapper name and logo are trademarks of the Great Circle Mapper.
All other trademarks mentioned herein belong to their respective owners.
Please see credits for attibutions and further copyright information.

  Follow gcmap on Facebook Follow gcmap on Twitter

hCard Microformat

Geo Microformat